Location: Christianberg
(48.9086°N, 14.0209°E)
Time: 22:04:40
(UTC+00:00)

Aureole 3 Rocket - Pass Details

Date: 20 June 2021
Orbit: 399 x 1738 km, 82.5° (Epoch: 04 August)

Event Time Altitude Azimuth Distance (km) Brightness Sun altitude
Rises 00:32:29 0° 352° (N) 2,561 7.3 -15.1°
Reaches altitude 10° 00:34:21 10° 354° (N) 1,778 6.4 -15.0°
Maximum altitude 00:38:11 75° 81° (E) 661 3.2 -14.8°
Enters shadow 00:42:29 15° 165° (SSE) 2,035 5.2 -14.5°
